EN

Hourly Weather Luis Correia

Today, 24 November, Tuesday

Time Temperature Precipitation Wind Pressure Humidity
00:00 +27°C° 0 mm 4 mps 758 mmHg 82%
01:00 +27°C° 0 mm 4 mps 758 mmHg 82%
02:00 +26°C° 0 mm 4 mps 757 mmHg 83%
03:00 +26°C° 0 mm 4 mps 757 mmHg 83%
04:00 +26°C° 0 mm 4 mps 757 mmHg 84%
05:00 +26°C° 0 mm 5 mps 757 mmHg 84%
06:00 +26°C° 0 mm 5 mps 757 mmHg 84%
07:00 +29°C° 0 mm 5 mps 758 mmHg 72%
08:00 +32°C° 0 mm 5 mps 758 mmHg 61%
09:00 +35°C° 0 mm 6 mps 758 mmHg 49%
10:00 +36°C° 0 mm 5 mps 758 mmHg 45%
11:00 +37°C° 0 mm 5 mps 758 mmHg 42%
12:00 +39°C° 0 mm 5 mps 757 mmHg 38%
13:00 +38°C° 0 mm 6 mps 757 mmHg 42%
14:00 +36°C° 0 mm 6 mps 756 mmHg 46%
15:00 +35°C° 0 mm 7 mps 755 mmHg 50%
16:00 +34°C° 0 mm 7 mps 756 mmHg 58%
17:00 +32°C° 0 mm 7 mps 756 mmHg 65%
18:00 +30°C° 0 mm 7 mps 756 mmHg 72%
19:00 +30°C° 0 mm 7 mps 757 mmHg 74%
20:00 +29°C° 0 mm 6 mps 757 mmHg 75%
21:00 +29°C° 0 mm 6 mps 757 mmHg 77%
22:00 +29°C° 0 mm 6 mps 757 mmHg 77%
23:00 +28°C° 0 mm 6 mps 757 mmHg 77%

Tomorrow, 25 November, Wednesday

Time Temperature Precipitation Wind Pressure Humidity
00:00 +28°C° 0 mm 6 mps 757 mmHg 77%
01:00 +28°C° 0 mm 7 mps 757 mmHg 77%
02:00 +28°C° 0 mm 7 mps 757 mmHg 77%
03:00 +28°C° 0 mm 7 mps 757 mmHg 76%
04:00 +28°C° 0.1 mm 6 mps 757 mmHg 75%
05:00 +29°C° 0.1 mm 6 mps 757 mmHg 73%
06:00 +29°C° 0.1 mm 6 mps 757 mmHg 72%
07:00 +32°C° 0.1 mm 6 mps 757 mmHg 64%
08:00 +33°C° 0.1 mm 6 mps 758 mmHg 56%
09:00 +35°C° 0.1 mm 6 mps 758 mmHg 48%
10:00 +36°C° 0 mm 6 mps 758 mmHg 47%
11:00 +36°C° 0 mm 6 mps 757 mmHg 46%
12:00 +36°C° 0 mm 6 mps 757 mmHg 45%
13:00 +36°C° 0 mm 6 mps 756 mmHg 48%
14:00 +35°C° 0 mm 7 mps 756 mmHg 51%
15:00 +35°C° 0 mm 7 mps 755 mmHg 54%
16:00 +33°C° 0 mm 7 mps 755 mmHg 61%
17:00 +32°C° 0 mm 7 mps 755 mmHg 67%
18:00 +29°C° 0 mm 7 mps 756 mmHg 73%
19:00 +29°C° 0 mm 7 mps 756 mmHg 74%
20:00 +29°C° 0 mm 7 mps 756 mmHg 74%
21:00 +29°C° 0 mm 7 mps 757 mmHg 75%
22:00 +29°C° 0 mm 7 mps 757 mmHg 74%
23:00 +28°C° 0 mm 7 mps 757 mmHg 73%

Day after tomorrow, 26 November, Thursday

Time Temperature Precipitation Wind Pressure Humidity
00:00 +28°C° 0 mm 7 mps 756 mmHg 72%
01:00 +28°C° 0 mm 7 mps 756 mmHg 72%
02:00 +28°C° 0 mm 7 mps 756 mmHg 73%
03:00 +27°C° 0 mm 7 mps 756 mmHg 73%
04:00 +27°C° 0 mm 7 mps 756 mmHg 73%
05:00 +27°C° 0 mm 7 mps 756 mmHg 72%
06:00 +27°C° 0 mm 6 mps 756 mmHg 72%
07:00 +29°C° 0 mm 6 mps 757 mmHg 63%
08:00 +32°C° 0 mm 6 mps 757 mmHg 54%
09:00 +34°C° 0 mm 7 mps 757 mmHg 45%
10:00 +36°C° 0 mm 6 mps 757 mmHg 40%
11:00 +39°C° 0 mm 6 mps 756 mmHg 34%
12:00 +41°C° 0 mm 5 mps 756 mmHg 28%
13:00 +39°C° 0 mm 6 mps 755 mmHg 35%
14:00 +38°C° 0 mm 6 mps 755 mmHg 43%
15:00 +35°C° 0 mm 7 mps 754 mmHg 50%
16:00 +34°C° 0 mm 6 mps 754 mmHg 56%
17:00 +32°C° 0 mm 6 mps 754 mmHg 62%
18:00 +30°C° 0 mm 6 mps 754 mmHg 68%
19:00 +30°C° 0 mm 6 mps 755 mmHg 68%
20:00 +30°C° 0 mm 6 mps 755 mmHg 68%
21:00 +30°C° 0 mm 6 mps 756 mmHg 69%
22:00 +29°C° 0 mm 6 mps 756 mmHg 67%
23:00 +29°C° 0 mm 6 mps 756 mmHg 65%

27 November, Friday

Time Temperature Precipitation Wind Pressure Humidity
00:00 +29°C° 0 mm 6 mps 755 mmHg 63%
01:00 +29°C° 0 mm 6 mps 755 mmHg 65%
02:00 +28°C° 0 mm 6 mps 755 mmHg 68%
03:00 +28°C° 0 mm 6 mps 754 mmHg 70%
04:00 +28°C° 0 mm 6 mps 755 mmHg 70%
05:00 +28°C° 0 mm 6 mps 755 mmHg 69%
06:00 +28°C° 0 mm 7 mps 756 mmHg 69%
07:00 +30°C° 0 mm 6 mps 756 mmHg 61%
08:00 +33°C° 0 mm 6 mps 757 mmHg 53%
09:00 +35°C° 0 mm 5 mps 757 mmHg 45%
10:00 +37°C° 0 mm 5 mps 756 mmHg 41%
11:00 +39°C° 0 mm 5 mps 756 mmHg 36%
12:00 +41°C° 0 mm 5 mps 756 mmHg 32%
13:00 +39°C° 0 mm 5 mps 755 mmHg 39%
14:00 +36°C° 0 mm 6 mps 755 mmHg 47%
15:00 +35°C° 0 mm 6 mps 754 mmHg 55%
16:00 +34°C° 0.1 mm 7 mps 754 mmHg 60%
17:00 +33°C° 0.1 mm 7 mps 754 mmHg 64%
18:00 +32°C° 0.1 mm 7 mps 755 mmHg 69%
19:00 +30°C° 0.1 mm 7 mps 755 mmHg 69%
20:00 +30°C° 0.1 mm 6 mps 756 mmHg 70%
21:00 +29°C° 0.1 mm 6 mps 756 mmHg 70%
22:00 +29°C° 0.1 mm 6 mps 756 mmHg 70%
23:00 +29°C° 0.1 mm 6 mps 756 mmHg 71%

28 November, Saturday

Time Temperature Precipitation Wind Pressure Humidity
00:00 +28°C° 0.1 mm 6 mps 756 mmHg 71%
01:00 +28°C° 0.1 mm 6 mps 755 mmHg 73%
02:00 +28°C° 0.1 mm 6 mps 755 mmHg 75%
03:00 +28°C° 0.1 mm 6 mps 755 mmHg 77%
04:00 +28°C° 0 mm 6 mps 755 mmHg 76%
05:00 +28°C° 0 mm 6 mps 756 mmHg 75%
06:00 +28°C° 0 mm 6 mps 756 mmHg 75%
07:00 +29°C° 0 mm 5 mps 756 mmHg 67%
08:00 +32°C° 0 mm 5 mps 757 mmHg 60%
09:00 +34°C° 0 mm 5 mps 757 mmHg 52%
10:00 +36°C° 0 mm 5 mps 757 mmHg 45%
11:00 +39°C° 0 mm 5 mps 756 mmHg 37%
12:00 +41°C° 0 mm 5 mps 756 mmHg 29%
13:00 +39°C° 0 mm 5 mps 755 mmHg 34%
14:00 +38°C° 0 mm 6 mps 755 mmHg 40%
15:00 +36°C° 0 mm 6 mps 754 mmHg 45%
16:00 +34°C° 0 mm 6 mps 754 mmHg 52%
17:00 +33°C° 0 mm 7 mps 755 mmHg 60%
18:00 +30°C° 0 mm 7 mps 755 mmHg 67%
19:00 +30°C° 0 mm 7 mps 755 mmHg 70%
20:00 +29°C° 0 mm 6 mps 756 mmHg 72%
21:00 +29°C° 0 mm 6 mps 757 mmHg 75%
22:00 +29°C° 0 mm 6 mps 757 mmHg 76%
23:00 +29°C° 0 mm 7 mps 756 mmHg 77%

29 November, Sunday

Time Temperature Precipitation Wind Pressure Humidity
00:00 +28°C° 0 mm 7 mps 756 mmHg 77%
01:00 +28°C° 0 mm 7 mps 756 mmHg 76%
02:00 +28°C° 0 mm 7 mps 756 mmHg 76%
03:00 +28°C° 0 mm 7 mps 756 mmHg 75%
04:00 +28°C° 0 mm 7 mps 756 mmHg 73%
05:00 +28°C° 0 mm 6 mps 756 mmHg 71%
06:00 +28°C° 0 mm 6 mps 757 mmHg 69%
07:00 +30°C° 0 mm 6 mps 757 mmHg 61%
08:00 +33°C° 0 mm 6 mps 757 mmHg 53%
09:00 +35°C° 0 mm 6 mps 758 mmHg 45%
10:00 +37°C° 0 mm 5 mps 757 mmHg 41%
11:00 +39°C° 0 mm 5 mps 757 mmHg 36%
12:00 +40°C° 0 mm 5 mps 756 mmHg 31%
13:00 +39°C° 0 mm 5 mps 756 mmHg 38%
14:00 +36°C° 0 mm 5 mps 755 mmHg 44%
15:00 +34°C° 0 mm 5 mps 754 mmHg 51%
16:00 +32°C° 0 mm 5 mps 755 mmHg 57%
17:00 +30°C° 0 mm 5 mps 755 mmHg 63%
18:00 +29°C° 0 mm 5 mps 755 mmHg 69%
19:00 +29°C° 0 mm 5 mps 756 mmHg 70%
20:00 +29°C° 0 mm 5 mps 756 mmHg 72%
21:00 +28°C° 0 mm 5 mps 757 mmHg 74%
22:00 +28°C° 0 mm 5 mps 757 mmHg 75%
23:00 +28°C° 0 mm 5 mps 757 mmHg 77%
Show more